Location: Siratepeler Tepesi
(39.1042°N, 32.0781°E)
Time: 10:44:56
(UTC+00:00)

Meteor 2-15 - Pass Details

Date: 11 April 2026
Orbit: 937 x 954 km, 82.5° (Epoch: 14 May)

Event Time Altitude Azimuth Distance (km) Brightness Sun altitude
Exits shadow 18:27:12 46° 137° (SE) 1,238 4.6 -22.7°
Maximum altitude 18:28:34 56° 93° (E) 1,105 4.4 -22.9°
Drops below altitude 10° 18:34:29 10° 16° (NNE) 2,664 7.0 -23.9°
Sets 18:37:01 0° 13° (NNE) 3,615 7.8 -24.3°
